Weather History for St. Joseph, MO

Change the Weather History Date:

Monday, December 10, 2012

  Actual Average Record
Temperature  
Mean Temperature 23 °F 31 °F  
Max Temperature 31 °F 41 °F 65 °F (1965)
Min Temperature 14 °F 21 °F -14 °F (1972)
Degree Days  
Heating Degree Days 42 34  
Month to date heating degree days 230 325  
Since 1 July heating degree days 1342 1436  
Cooling Degree Days 0 0  
Month to date cooling degree days 0 0  
Year to date cooling degree days 1565 1221  
Moisture  
Dew Point 6 °F    
Average Humidity 45    
Maximum Humidity 62    
Minimum Humidity 28    
Precipitation  
Precipitation 0.00 in 0.06 in 0.76 in (2007)
Month to date precipitation 0.03 0.48  
Year to date precipitation 22.34 34.56  
Sea Level Pressure  
Sea Level Pressure 30.08 in    
Wind  
Wind Speed 9 mph (West)    
Max Wind Speed 22 mph    
Max Gust Speed 26 mph    
Visibility 10 miles    
Events      
T = Trace of Precipitation, MM = Missing Value Source: NWS Daily Summary

Daily Weather History Graph

Daily Weather History Graph

Search for Another Location

Airport:

Trip Planner

Search our weather history database for the weather conditions in past years. The results will help you decide how hot, cold, wet, or windy it might be!

Date:

Astronomy

Dec. 10, 2012 Rise Set
Actual Time 7:30 AM CST 4:55 PM CST
Civil Twilight 7:00 AM CST 5:25 PM CST
Nautical Twilight 6:26 AM CST 5:59 PM CST
Astronomical Twilight 5:53 AM CST 6:31 PM CST
Moon 4:14 AM CST (12/10) 2:44 PM CST (12/10)
Length of Visible Light 10h 25m
Length of Day
9h 24m
Waning Crescent, 10% of the Moon is Illuminated
Dec 10
Waning Crescent
Dec 13
New
Dec 19
First Quarter
Dec 28
Full
Jan 4
Last Quarter

Hourly Weather History & Observations

Time (CST) Temp. Windchill Dew Point Humidity Pressure Visibility Wind Dir Wind Speed Gust Speed Precip Events Conditions
12:53 AM 19.9 °F 5.7 °F 9.0 °F 62% 30.11 in 10.0 mi NW 16.1 mph 25.3 mph N/A   Overcast
1:53 AM 19.0 °F 4.5 °F 9.0 °F 65% 30.10 in 10.0 mi NW 16.1 mph 20.7 mph N/A   Overcast
2:53 AM 19.0 °F 3.6 °F 8.1 °F 62% 30.10 in 10.0 mi NW 18.4 mph 24.2 mph N/A   Mostly Cloudy
3:22 AM 17.6 °F 2.2 °F 8.6 °F 68% 30.06 in 10.0 mi NW 17.3 mph - N/A   Mostly Cloudy
3:50 AM 19.4 °F 4.1 °F 6.8 °F 58% 30.06 in 10.0 mi NNW 18.4 mph 25.3 mph N/A   Overcast
3:53 AM 19.0 °F 5.0 °F 7.0 °F 59% 30.09 in 10.0 mi NW 15.0 mph 25.3 mph N/A   Overcast
4:53 AM 19.0 °F 4.5 °F 7.0 °F 59% 30.09 in 10.0 mi NW 16.1 mph - N/A   Overcast
5:53 AM 17.1 °F 2.5 °F 6.1 °F 62% 30.12 in 10.0 mi NW 15.0 mph - N/A   Overcast
6:53 AM 17.1 °F 3.6 °F 6.1 °F 62% 30.13 in 10.0 mi NW 12.7 mph - N/A   Overcast
7:53 AM 16.0 °F 2.9 °F 5.0 °F 62% 30.14 in 10.0 mi WNW 11.5 mph - N/A   Overcast
8:53 AM 16.0 °F 1.1 °F 5.0 °F 62% 30.16 in 10.0 mi NW 15.0 mph - N/A   Overcast
9:53 AM 16.0 °F 2.9 °F 5.0 °F 62% 30.17 in 10.0 mi NW 11.5 mph - N/A   Overcast
10:53 AM 18.0 °F 9.8 °F 5.0 °F 57% 30.15 in 10.0 mi West 5.8 mph - N/A   Overcast
11:21 AM 19.4 °F 10.4 °F 6.8 °F 58% 30.10 in 10.0 mi WNW 6.9 mph - N/A   Scattered Clouds
11:53 AM 21.9 °F 14.5 °F 8.1 °F 55% 30.13 in 10.0 mi West 5.8 mph - N/A   Mostly Cloudy
12:53 PM 25.0 °F 18.1 °F 10.0 °F 53% 30.09 in 10.0 mi West 5.8 mph - N/A   Scattered Clouds
1:53 PM 28.9 °F 20.4 °F 3.9 °F 35% 30.07 in 10.0 mi West 9.2 mph - N/A   Clear
2:53 PM 30.0 °F 23.2 °F 3.0 °F 32% 30.04 in 10.0 mi West 6.9 mph - N/A   Clear
3:53 PM 30.0 °F 23.2 °F 1.9 °F 30% 30.04 in 10.0 mi West 6.9 mph - N/A   Clear
4:53 PM 27.0 °F 21.6 °F 3.9 °F 37% 30.03 in 10.0 mi SSW 4.6 mph - N/A   Clear
5:53 PM 24.1 °F 17.0 °F 7.0 °F 48% 30.04 in 10.0 mi SSW 5.8 mph - N/A   Clear
6:53 PM 21.0 °F 13.4 °F 6.1 °F 53% 30.04 in 10.0 mi SSE 5.8 mph - N/A   Clear
7:53 PM 19.9 °F 14.9 °F 7.0 °F 57% 30.05 in 10.0 mi South 3.5 mph - N/A   Clear
8:53 PM 19.0 °F 13.9 °F 7.0 °F 59% 30.05 in 10.0 mi SSE 3.5 mph - N/A   Clear
9:53 PM 19.0 °F 13.9 °F 7.0 °F 59% 30.05 in 10.0 mi SE 3.5 mph - N/A   Clear
10:53 PM 17.1 °F 11.7 °F 7.0 °F 65% 30.04 in 10.0 mi SE 3.5 mph - N/A   Clear
11:53 PM 17.1 °F 11.7 °F 7.0 °F 65% 30.03 in 10.0 mi South 3.5 mph - N/A   Clear